Location: Terra Rouge Observatory
(46.0000°N, 62.7500°W)
Time: 09:40:12
(UTC-03:00)

Daily predictions for brighter satellites

Satellite Brightness Start Highest point End
(mag) Time Altitude Azimuth Time Altitude Azimuth Time Altitude Azimuth
Cosmos 2322 Rocket 4.2 21:35:16 10° NW 21:39:42 24° WSW 21:44:07 10° SSW
Cosmos 1328 4.0 21:36:37 10° S 21:40:27 52° E 21:44:20 10° NNE
AVUM R/B 4.2 21:38:34 10° SW 21:40:52 40° WNW 21:43:25 10° NNE
Cosmos 2322 4.1 21:35:28 10° NNW 21:41:09 65° WSW 21:46:46 10° SSE
Tiangong 1 2.5 21:40:45 10° SSW 21:43:04 19° SSE 21:45:22 10° ESE
Meteor 1-4 Rocket 4.0 21:40:11 10° NNE 21:43:18 24° ENE 21:46:22 10° SE
Cosmos 2360 Rocket 2.8 21:42:48 10° NW 21:48:19 56° WSW 21:53:50 10° S
Aureole 3 4.3 21:42:16 10° S 21:48:38 67° E 21:53:38 10° NNE
MetOp-B 4.3 21:43:50 10° SSE 21:49:08 68° ENE 21:54:28 10° N
CZ-4B R/B 4.2 21:44:48 10° NNE 21:49:43 37° E 21:54:30 10° SSE
Cosmos 1271 Rocket 4.0 21:46:29 10° NNE 21:49:48 27° ENE 21:53:08 10° SE
SL-16 R/B 4.4 21:47:42 10° NW 21:51:51 21° W 21:56:00 10° SSW
Nadezhda 2 Rocket 4.5 21:46:47 10° S 21:52:51 69° E 21:58:56 10° NNE
Meteor 1-27 4.4 21:49:06 10° N 21:54:47 64° ENE 22:00:21 10° SSE
Cosmos 1680 Rocket 4.2 21:52:15 10° NNW 21:57:22 55° WSW 22:02:30 10° S
USA 229 DEB 4.3 21:52:37 10° SW 21:59:30 65° NW 22:06:32 10° NE
USA 229 4.3 21:52:43 10° SW 21:59:37 65° NW 22:06:38 10° NE
SL-14 R/B 3.8 21:57:05 10° SSE 22:00:50 42° E 22:04:39 10° NNE
H-2A R/B 3.3 21:56:38 10° ESE 22:01:14 30° ENE 22:05:54 10° N
SPOT 5 3.2 22:03:56 10° S 22:08:30 66° WSW 22:13:24 10° NNW
Cosmos 1626 4.1 22:06:44 11° ESE 22:08:44 15° E 22:10:58 10° NE
PSLV R/B 3.8 22:07:13 10° S 22:10:13 53° W 22:13:13 10° NNW
Cosmos 1898 Rocket 3.7 22:07:21 10° S 22:12:23 53° ESE 22:17:27 10° NNE
Cosmos 1674 4.4 22:09:40 10° SW 22:13:13 35° WNW 22:16:49 10° N
SPOT 1/Viking Rocket 3.6 22:08:20 10° SSE 22:13:28 78° ENE 22:18:39 10° NNW
Cosmos 2151 3.8 22:11:03 10° SSW 22:15:09 53° WNW 22:19:18 10° N
Lacrosse 4 Rocket 3.5 22:14:43 10° N 22:18:01 20° NE 22:21:22 10° E
NOSS 3-1 (A) 3.5 22:13:02 10° SSW 22:18:49 59° ESE 22:25:16 10° NE
Cosmos 2227 Rocket 3.1 22:14:11 10° SSE 22:18:58 29° ESE 22:23:48 10° NE
YAOGAN 6 2.7 22:15:47 10° S 22:19:24 73° WSW 22:23:00 10° NNW
Cosmos 2150 Rocket 4.1 22:17:07 10° S 22:22:30 67° ESE 22:27:57 10° NNE
Cosmos 1300 3.2 22:20:59 10° NNW 22:24:47 60° W 22:28:34 10° S
Cosmos 2058 3.2 22:21:03 10° SSW 22:25:07 67° W 22:29:14 10° N
Meteor 1-11 4.3 22:19:35 10° S 22:25:22 87° E 22:31:07 10° NNE
COSMOS 2455 3.9 22:19:54 10° NNW 22:25:27 36° NE 22:30:55 10° ESE
Cosmos 292 Rocket 3.7 22:21:23 10° NNW 22:26:11 85° ENE 22:30:08 15° SSE
Cosmos 2242 Rocket 3.6 22:23:26 10° N 22:27:56 79° E 22:31:50 14° SSE
Cosmos 1862 Rocket 4.3 22:25:54 10° N 22:29:59 38° ENE 22:32:52 17° SE
Sich 1 3.0 22:26:54 10° S 22:31:19 85° E 22:35:43 10° N
SL-16 R/B 3.5 22:26:35 10° N 22:31:36 31° NE 22:36:19 11° ESE
Cosmos 2333 Rocket 2.4 22:27:04 10° NNW 22:32:49 69° ENE 22:37:23 17° SE
CARTOSAT-1 4.2 22:30:59 17° SE 22:34:03 43° ENE 22:38:09 10° N
Landsat 7 4.0 22:31:26 16° SSE 22:35:12 64° ENE 22:39:56 10° N
Cosmos 1633 Rocket 3.0 22:31:56 10° S 22:36:19 90° NE 22:40:42 10° N
USA 245 3.2 22:37:38 15° SSW 22:39:19 36° WSW 22:41:28 10° NNW
ATLAS 2AS CENTAUR R/B 3.4 22:34:29 10° S 22:41:21 40° ESE 22:48:41 10° NE
SAR-Lupe-2 4.4 22:40:53 20° SE 22:42:53 38° ENE 22:46:15 10° N
COSMOS 2428 3.7 22:39:11 10° NW 22:44:27 41° WSW 22:49:36 11° S
ARGOS 3.4 22:40:45 12° S 22:45:41 68° WSW 22:51:05 10° NNW
Cosmos 2297 Rocket 2.9 22:42:05 16° SSE 22:45:46 33° ESE 22:50:48 10° NE
Cosmos 1455 2.4 22:43:29 10° N 22:47:15 55° ENE 22:49:25 23° SSE
Cosmos 2219 Rocket 2.3 22:43:12 10° NNW 22:48:47 72° WSW 22:53:00 18° SSE
Cosmos 1346 3.4 22:47:54 27° SSE 22:49:09 45° E 22:52:05 10° NNE
DMSP B5D2-2 4.5 22:44:45 10° NNE 22:49:46 44° E 22:53:11 19° SSE
DELTA 2 DEB (DPAF) 4.2 22:47:31 18° SSE 22:50:51 85° WSW 22:55:22 10° NNW
Terra 1.9 22:47:48 20° SSE 22:51:03 64° ENE 22:55:47 10° N
USA 32 4.2 22:46:55 10° N 22:52:11 74° W 22:56:45 14° S
ATLAS 3B R/B 3.1 22:45:34 10° NW 22:52:36 58° NE 22:58:02 16° ESE
ERBS 2.7 22:50:45 10° SSW 22:54:04 41° SE 22:57:22 10° ENE
Spot 4 4.1 22:55:20 21° SE 22:58:25 60° ENE 23:03:14 10° N
Cosmos 1726 3.9 22:57:02 10° NNW 23:00:21 29° W 23:03:39 10° SSW
IGS 5A 3.5 22:59:56 24° SSE 23:02:21 74° ENE 23:06:32 10° N
SL-08 RB Rocket 4.4 23:00:48 15° S 23:04:18 48° W 23:08:41 10° NNW
NOSS 3-1 (C) 4.0 22:59:04 10° SW 23:05:00 62° NW 23:11:40 10° NE
OAO 2 Rocket 4.5 23:04:10 10° SW 23:08:25 24° S 23:09:07 24° SSE
Cosmos 1241 Rocket 4.4 23:02:51 10° SSW 23:09:00 71° ESE 23:15:16 10° NE
Cosmos 1980 3.8 23:03:54 10° NNW 23:09:32 69° WSW 23:13:10 22° S
Cosmos 1937 Rocket 3.7 23:04:27 10° SSW 23:09:40 71° WNW 23:14:53 10° NNE
Cosmos 220 Rocket 4.4 23:05:27 10° SSW 23:09:49 67° WNW 23:14:17 10° NNE
Cosmos 1869 3.3 23:08:49 10° N 23:12:53 90° ENE 23:14:57 28° S
COS B Rocket 4.5 23:11:16 10° NNE 23:14:41 29° E 23:15:57 25° ESE
Nadezhda 1 Rocket 4.2 23:11:53 10° NNW 23:17:55 68° W 23:22:31 18° S
Cosmos 990 Rocket 4.0 23:13:46 10° SSW 23:18:55 81° WNW 23:24:06 10° NNE
Tiangong 1 1.5 23:16:17 10° WSW 23:18:55 40° SSW 23:18:55 40° SSW
Okean 1-7 4.1 23:16:26 10° N 23:20:17 32° ENE 23:21:57 24° ESE
Cosmos 2237 Rocket 2.5 23:16:12 10° NNW 23:21:49 60° WSW 23:25:15 24° S
CZ-4C R/B 4.4 23:21:28 19° SSW 23:23:22 31° W 23:26:32 10° NNW
Cosmos 1470 Rocket 4.3 23:25:29 14° SSW 23:28:58 50° WNW 23:33:12 10° N
Cosmos 2082 3.7 23:23:24 10° SSW 23:29:09 85° WNW 23:34:55 10° NNE
Cosmos 1933 Rocket 4.3 23:26:29 15° SSW 23:30:06 52° WNW 23:34:29 10° N
Cosmos 1703 Rocket 3.6 23:26:54 10° N 23:31:15 67° E 23:33:02 34° SSE
Cosmos 1269 Rocket 4.0 23:32:04 10° NNW 23:37:25 83° WSW 23:40:02 31° SSE
H-2A R/B 3.0 23:36:57 19° SSW 23:40:26 44° W 23:45:39 10° NNW
Cosmos 1709 Rocket 3.9 23:37:58 24° S 23:41:52 85° E 23:48:01 10° N
NOSS 2-3 (C) 4.5 23:41:42 33° SSE 23:43:10 40° ESE 23:48:26 10° NE
Cosmos 1626 3.3 23:41:26 18° SW 23:43:49 39° WNW 23:47:22 10° N
Meteor 2-3 Rocket 4.5 23:42:56 27° SE 23:45:12 38° E 23:50:26 10° NNE
Cosmos 2221 Rocket 3.6 23:40:43 10° N 23:45:19 88° E 23:47:07 37° S
SeaSat 1 2.8 23:46:37 27° SE 23:49:09 58° ENE 23:54:00 10° NNW
IKONOS-2 4.5 23:54:01 41° SSE 23:55:27 79° ENE 23:59:46 10° N
